www.pogodaiklimat.ru

Погода и климат >> Архив погоды >> Антарктида >> SANAE


ПОГОДА в SANAE

  • Прогноз погоды в SANAE
  • Монитор погоды в SANAE
  • Климат города

АРХИВ ПОГОДЫ в SANAE

Время (UTC), дата Ветер
(напр.,м/с)
 
Видим.   Явления Облачность Т
(С)
Тd
(С)
f
(%)
Тe
(С)
Тes
(С)
Комфортность P
(гПа)
Po
(гПа)
Тmin
(С)
Tmax
(С)
R
(мм)
R24
(мм)
S
(см)
03 18.06 В 11 н/о н/о -19.8 1011.2 902.8 -20.5 -16.6
06 18.06 В 14 >70 км метель 9/9 600 м
[Sc]
-17.7 1009.7 902.3 -21.1
09 18.06 В 16 >70 км метель 9/9 600 м
[Sc]
-16.0 1009.6 902.9 -21.1 -15.9
12 18.06 В 13 >70 км метель 9/9 600 м
[Sc]
-15.6 1010.0 903.4 -21.1 -15.6
15 18.06 В 19 н/о н/о -16.0 1007.4 900.9 -16.2 -15.5
18 18.06 В 10 >70 км метель 9/9 600 м
[Sc]
-15.7 1010.4 903.7 -16.2 -15.4
21 18.06 ЮВ 12 н/о н/о -16.5 1010.4 903.4 -16.9 -15.4
00 19.06 ЮВ 13 н/о н/о -17.8 1009.0 901.6 -18.1 -15.4
03 19.06 ЮВ 11 н/о н/о -17.3 1007.4 900.4 -18.1 -15.4
06 19.06 ЮВ 12 >70 км позёмок {метель} 8/8 600 м
[Sc]
-19.3 1006.6 898.9 -19.5
09 19.06 ЮВ 9 >70 км позёмок {метель} 8/8 600 м
[Sc]
-12.5 1000.7 896.2 -19.6 -12.3
12 19.06 ЮВ 10 >70 км позёмок {метель} 8/8 600 м
[Sc]
-16.2 999.7 893.9 -19.6 -12.1
15 19.06 ЮВ 11 н/о н/о -17.6 996.8 890.8 -18.2 -12.1
18 19.06 ЮВ 17 >70 км позёмок {метель} 3/3 600 м
[Sc]
-20.0 994.4 887.7 -21.0 -12.1
21 19.06 ЮВ 12 н/о н/о -23.7 996.4 888.0 -24.4 -12.1
00 20.06 ЮВ 13 н/о н/о -22.9 994.8 886.9 -24.4 -12.1
03 20.06 ЮВ 13 н/о н/о -22.4 994.2 886.6 -24.4 -12.1
06 20.06 ЮВ 13 >70 км позёмок {метель} 3/3 600 м
[Sc]
-23.6 994.8 886.6 -24.4
09 20.06 ЮВ 12 >70 км позёмок {метель} 3/3 600 м
[Sc]
-23.1 995.0 887.0 -24.4 -22.6
12 20.06 ЮВ 13 >70 км позёмок {метель} 3/3 600 м
[Sc]
-21.3 994.3 887.1 -24.4 -21.3
15 20.06 В 11 н/о н/о -20.1 995.1 888.3 -22.1 -20.0
18 20.06 В 10 >70 км позёмок {метель} 3/3 600 м
[Sc]
-21.2 997.3 889.8 -22.1 -19.7
21 20.06 В 8 н/о н/о -19.8 998.0 891.0 -22.1 -19.1
00 21.06 СВ 1 н/о н/о -19.6 999.3 892.2 -22.1 -17.8
03 21.06 ЮВ 6 н/о н/о -24.3 1001.9 892.7 -24.4 -17.8
06 21.06 ЮВ 10 >70 км 3/3 600 м
[Sc]
-24.4 1002.2 892.9 -25.1
09 21.06 В 6 >70 км {метель} 3/3 600 м
[Sc Ac As]
-25.4 1003.8 893.9 -27.3 -20.4
12 21.06 В 9 >70 км {метель} 4/3 600 м
[Sc Ac As]
-27.2 1005.5 894.7 -27.5 -20.4
15 21.06 ЮВ 8 н/о н/о -26.7 1006.4 895.7 -27.2 -20.4
18 21.06 ЮВ 8 >70 км 3/3 600 м
[Sc]
-25.9 1006.2 895.8 -27.4 -20.4
21 21.06 ЮВ 7 н/о н/о -25.7 1006.5 896.2 -27.4 -20.4
00 22.06 В 6 н/о н/о -26.2 1007.4 896.8 -27.4 -20.4
03 22.06 В 10 н/о н/о -25.2 1006.5 896.4 -27.4 -20.4
06 22.06 В 10 н/о н/о -24.4 1006.3 896.5 -27.4
09 22.06 ЮВ 9 >70 км позёмок {метель} 4/4 600 м
[Sc]
-23.7 1007.7 898.1 -27.4 -23.7
12 22.06 В 6 >70 км 10/10 600 м
[Sc]
-21.5 1007.8 899.1 -27.4 -21.4
15 22.06 Ю 1 н/о н/о -19.8 1007.7 899.7 -21.8 -19.5
18 22.06 ЮВ 4 >70 км 10/10 600 м
[Sc]
-21.9 1008.7 899.7 -22.4 -18.9
21 22.06 ЮВ 1 н/о н/о -22.0 1008.6 899.6 -22.5 -18.9
00 23.06 ЮЗ 1 н/о н/о -21.0 1007.7 899.2 -23.5 -18.9
03 23.06 Ю 2 н/о н/о -21.9 1006.7 897.9 -25.0 -18.9
06 23.06 ЮВ 6 >70 км 5/5 600 м
[Sc]
-20.2 1004.1 896.3 -25.3
09 23.06 ЮВ 9 н/о н/о -18.7 1001.7 894.7 -25.3 -17.8
12 23.06 ЮВ 6 >70 км 3/3 600 м
[Sc Ac As]
-21.4 1001.6 893.6 -25.3 -17.1
15 23.06 ЮВ 11 н/о н/о -24.1 1001.1 892.0 -25.7 -17.1
18 23.06 ЮВ 11 >70 км 3/3 600 м
[Sc Ac As]
-23.6 999.7 891.0 -25.7 -17.1
21 23.06 ЮВ 12 н/о н/о -23.8 998.6 889.9 -25.7 -17.1
00 24.06 ЮВ 11 н/о н/о -23.9 997.9 889.3 -25.7 -17.1
03 24.06 ЮВ 12 н/о н/о -24.8 997.7 888.7 -25.7 -17.1
06 24.06 В 9 >70 км 3/3 600 м
[Sc]
-24.2 997.5 888.8 -25.7
09 24.06 ЮВ 2 н/о н/о -21.6 997.1 889.5 -25.7 -21.5
12 24.06 В 1 >70 км 3/0 2000 м
[Ac As]
-23.6 997.7 889.2 -25.7 -19.9
18 24.06 В 9 >70 км 3/0 2000 м
[Ac As]
-24.9 998.3 889.2 -25.2 -19.9
21 24.06 ЮВ 6 н/о н/о -24.9 997.8 888.8 -25.2 -19.9

 

Местоположение метеостанции SANAE (Антарктида): широта -71.70 долгота -2.80 высота над уровнем моря 817 м.

В архиве по умолчанию представлена погода в SANAE за последнюю неделю. Архивные данные за месяц целиком и за предыдущие месяцы, начиная с января 2011 года, Вы можете получить, выбрав интересующий диапазон дат из раскрывающегося списка и нажав кнопку "Ввод!".


*Определитесь, кто Вы:
робот инопланетянин человек

Внимание! Время в таблицах - всемирное. Для получения местного времени необходимо прибавить поправку, которая в SANAE равна 0 ч.

Смотрите также архив погоды в соседних городах и на ближайших метеорологических станциях:

Погода в Troll (Антарктида) (183 км)
Погода в Neumayer Station (Антарктида) (227 км)
Погода в Soerasen (Антарктида) (257 км)
Погода в Kohnen Ep9 (Антарктида) (378 км)
Погода в Nordenskiold Base (Антарктида) (386 км)
Погода в Maitri (Антарктида) (530 км)
Погода в Novolazarevskaja (Антарктида) (532 км)
Погода в Halley (Антарктида) (851 км)
Погода в Base Belgrano Ii (Антарктида) (1130 км)
Погода в Relay Station (Антарктида) (1487 км)

Пояснения к столбцам:

Ветер - указаны скорость ветра в м/с - средняя за 10 мин, порывы в срок и между сроками (в фигурных скобках) и направление, откуда дует ветер: С - северный, СВ - северо-восточный, В - восточный, ЮВ - юго-восточный, Ю - южный, ЮЗ - юго-западный, З - западный, СЗ - северо-западный.
Видимость - горизонтальная дальность видимости в метрах или километрах. При видимости от 1 до 10 км при отсутствии осадков обычно наблюдается дымка, при ухудшении видимости до 1 км и менее - туман. В сухую погоду видимость может ухудшаться дымом, пылью или мглою.
Явления - указаны атмосферные явления, наблюдавшиеся в срок или в последний час перед сроком; фигурными скобками обозначены явления, наблюдавшиеся между сроками (за 1-3 часа до срока); квадратными скобками обозначены град или гололедные отложения с указанием их диаметра в мм.
Облачность - указаны через наклонную черту общая и нижняя облачность в баллах и высота нижней границы облаков в метрах; квадратными скобками обозначены формы облаков: Ci - перистые, Cs - перисто-слоистые, Cc - перисто-кучевые, Ac - высококучевые, As - высокослоистые, Sc - слоисто-кучевые, Ns - слоисто-дождевые, Cu - кучевые, Cb - кучево-дождевые. Подробнее классификацию облаков см. в Атласе облаков (PDF).
T - Температура воздуха - температура, измеренная на высоте 2 м над землей.
Td - Температура точки росы - температура, при понижении до которой содержащийся в воздухе водяной пар достигнет насыщения.
f - Относительная влажность воздуха - влажноcть воздуха, измеренная на высоте 2 м над землей.
Te - Эффективная температура - температура, которую ощущает одетый по сезону человек в тени. Характеристика душности погоды. При расчете учитывается влияние влажности воздуха и скорости ветра на теплоощущения человека.
Tes - Эффективная температура на солнце - температура, которую ощущает человек, с поправкой на солнечный нагрев. Характеристика знойности погоды. Зависит от высоты солнца над горизонтом, облачности и скорости ветра. Ночью, в пасмурную погоду, а также при ветре 12 м/с и более поправка равна нулю.
P - Атмосферное давление - приведенное к уровню моря атмосферное давление.
Po - Атмосферное давление - измеренное на уровне метеостанции атмосферное давление.
Tmin - Минимальная температура - минимум температуры воздуха на высоте 2 м над землей.
Tmax - Максимальная температура - максимум температуры воздуха на высоте 2 м над землей.
R - Количество осадков - Количество выпавших осадков за период времени, мм. При наведении курсора мыши на число - период времени, за который выпало указанное количество осадков.
R24 - Количество осадков - Количество выпавших осадков за 24 часа, мм.
S - Снежный покров - Высота снежного покрова, см. При наведении курсора мыши на число - состояние снежного покрова и степень покрытия местности в баллах.